This is the latest recevied weather packets stored in our database for station/object CW2401. If no packets are shown the sender has not sent any weather packets the latest 10 day(s).
| Time | Temp. | Humidity | Pressure | Rain* | Wind** | Luminosity | Snow |
|---|---|---|---|---|---|---|---|
| 1777502539 | 22.22° C | 85% | 1008.3 hPa | 0 mm | - | - | - |
| 1777502416 | 22.22° C | 85% | 1008.4 hPa | 0 mm | - | - | - |
| 1777500846 | 22.78° C | 83% | 1008.7 hPa | 0 mm | - | - | - |
| 1777499400 | 22.78° C | 82% | 1009 hPa | 0 mm | - | - | - |
| 1777498432 | 22.22° C | 84% | 1009.2 hPa | 0 mm | - | - | - |
| 1777497461 | 22.22° C | 83% | 1009 hPa | 0 mm | - | - | - |
| 1777495399 | 21.67° C | 83% | 1009.4 hPa | 0 mm | - | - | - |
| 1777494677 | 21.67° C | 83% | 1009.6 hPa | 0 mm | - | - | - |
| 1777494437 | 21.67° C | 84% | 1009.5 hPa | 0 mm | - | - | - |
| 1777494195 | 21.67° C | 84% | 1009.6 hPa | 0 mm | - | - | - |
| 1777492991 | 21.11° C | 85% | 1010.1 hPa | 0 mm | - | - | - |
| 1777491899 | 20° C | 87% | 1010.7 hPa | 0 mm | - | - | - |
| 1777491534 | 20° C | 87% | 1010.8 hPa | 0 mm | - | - | - |
| 1777491169 | 19.44° C | 88% | 1010.9 hPa | 0 mm | - | - | - |
| 1777490076 | 19.44° C | 89% | 1011.5 hPa | 0 mm | - | - | - |
| 1777489713 | 19.44° C | 88% | 1011.5 hPa | 0 mm | - | - | - |
| 1777488986 | 18.89° C | 89% | 1011.6 hPa | 0 mm | - | - | - |
| 1777485728 | 18.89° C | 89% | 1012.1 hPa | 0 mm | - | - | - |
| 1777485247 | 18.89° C | 89% | 1012.2 hPa | 0 mm | - | - | - |
| 1777484760 | 18.89° C | 89% | 1012.3 hPa | 0 mm | - | - | - |
| 1777484638 | 18.89° C | 89% | 1012.3 hPa | 0 mm | - | - | - |
| 1777483790 | 18.89° C | 89% | 1012.5 hPa | 0 mm | - | - | - |
| 1777483426 | 18.89° C | 89% | 1012.5 hPa | 0 mm | - | - | - |
| 1777483182 | 18.89° C | 89% | 1012.6 hPa | 0 mm | - | - | - |
| 1777482820 | 18.89° C | 89% | 1012.7 hPa | 0 mm | - | - | - |
* Rain latest hour (hover to see other rain measurements)
** Current wind speed in m/s (hover to see current wind gust speed)